Location: Antioch Church
(34.9543°N, 88.5145°W)
Time: 11:01:06
(UTC+00:00)

Cosmos 2221 Rocket - Pass Details

Date: 11 December 2019
Orbit: 621 x 647 km, 82.5° (Epoch: 27 January)

Event Time Altitude Azimuth Distance (km) Brightness Sun altitude
Rises 00:44:23 0° 195° (SSW) 2,926 7.4 -24.2°
Reaches altitude 10° 00:46:39 10° 200° (SSW) 2,018 6.6 -24.7°
Maximum altitude 00:51:03 55° 279° (W) 761 4.2 -25.6°
Enters shadow 00:52:45 34° 339° (NNW) 1,053 4.7 -25.9°
